Погода в Оране

Алжир     35°41′53″N   0°38′40″E
темп.,
°C
ветер,
м/с
пор.,
м/с
влажн.,
%
обл.,
%
осадки,
мм/ч
давл.,
гПа
погр.,
м
13 мая, чт
чт1301:00+19юз611500 0.0 1018289
04:00+18юз711730 0.0 1017304
07:00+18зюз610730 0.0 1018324
10:00+21зюз68540 0.0 1018529
13:00+21зюз811550 0.0 1016605
16:00+21з711620 0.0 1015555
19:00+20зюз69620 0.0 1015358
22:00+19юз68640 0.0 1016203
14 мая, пт
пт1401:00+18юз585814 0.0 1015168
04:00+19юз475283 0.0 1014136
07:00+19юз611560 0.0 1015282
10:00+21зюз811600 0.0 1016507
13:00+21з796344 0.0 1016516
16:00+21зсз46695 0.0 1016479
19:00+19ссз127075 0.0 1016247
22:00+18ю117398 0.0 101783
15 мая, сб
сб1501:00+19в00655 0.0 101713
04:00+19в11635 0.0 101611
07:00+19в115920 0.0 101614
10:00+22в11535 0.0 1016193
13:00+22с43525 0.0 1015398
16:00+22с325390 0.0 1014245
19:00+21с1154100 0.0 1014113
22:00+21юв015796 0.0 101518
16 мая, вс
вс1601:00+20зсз22550 0.0 101412
04:00+20зсз11570 0.0 101312
07:00+20сз11570 0.0 101313
10:00+23всв11500 0.0 1014143
13:00+24с324533 0.0 1013315
16:00+23сз22434 0.0 1011227
19:00+23сз224893 0.0 1011102
22:00+23ююв234298 0.0 101346
17 мая, пн
пн1701:00+22зсз12545 0.0 101212
04:00+23ююз443829 0.0 101127
07:00+23юз2244100 0.0 101325
10:00+25зюз464575 0.0 1014304
13:00+23зсз566515 0.0 1015322
16:00+21с457399 0.0 1016306
19:00+20св127698 0.0 1016202
22:00+19ссв1283100 0.0 1018116